Temperature
18 18 18 18 18 18 18 18 18 18 18 18 18 18 18 18 18 18 18 18 18 18 18 18 18 18 18 18 18 18 18 18 19 18 18 18 18 18 18 18 18 18 18
18 18 18 18 18 18 17 17 17 17 17 17 17 17 17 17 17 17 17 17 17 17 17 17 17 18 18 18 18 18 18 18 18 18 18 18 18 18 18 18 18 18 18
18 17 18 18 17 17 17 17 17 17 17 17 17 17 17 17 17 17 17 17 17 17 17 17 17 17 17 18 18 18 18 18 18 18 18 18 18 18 18 18 18 18 18
17 17 17 17 17 17 17 17 17 17 17 17 17 17 17 17 17 17 17 16 16 17 17 17 17 17 17 17 18 18 18 18 18 18 18 17 17 18 18 18 18 18 18
17 17 17 17 17 17 17 17 17 17 16 16 16 16 16 16 16 16 16 16 16 16 16 17 17 17 17 17 17 18 18 18 18 17 17 17 18 18 18 18 18 18 18
17 17 17 17 17 17 17 17 16 16 16 16 16 16 16 16 16 16 16 16 16 16 16 16 17 17 17 17 17 18 18 18 17 17 17 17 18 18 18 18 18 18 18
17 17 17 17 17 17 17 16 16 16 16 16 16 16 16 16 16 16 16 16 16 16 16 16 16 16 17 17 17 17 18 17 17 17 17 18 18 18 18 18 18 18 18
17 17 17 17 17 17 17 16 16 16 16 16 16 16 16 16 16 16 16 15 15 16 16 16 16 16 16 17 17 17 18 18 17 17 17 18 18 18 18 18 18 18 18
18 17 17 17 17 17 17 17 16 16 16 16 16 16 16 16 16 16 15 15 15 16 16 16 16 16 16 17 17 17 17 17 17 17 17 18 18 18 18 18 18 18 18
18 18 18 17 17 17 17 17 16 16 16 16 16 16 16 16 16 15 15 15 16 16 16 16 16 16 16 17 17 17 17 17 17 17 17 18 18 18 18 18 18 18 18
19 19 18 18 18 17 17 17 17 16 16 16 16 16 16 16 16 16 16 16 15 15 16 16 16 16 16 17 17 17 17 17 17 17 17 17 17 18 18 18 18 18 18
19 19 19 19 18 18 18 17 17 17 16 16 16 16 16 16 16 16 16 16 15 15 15 16 16 16 16 16 17 17 17 17 17 17 17 17 17 17 17 17 18 18 18
20 20 19 19 19 18 18 17 17 17 17 16 16 16 16 16 16 16 16 16 15 15 16 16 16 16 16 17 17 17 17 17 17 17 17 17 17 17 17 17 17 17 17
20 20 19 19 19 19 18 18 18 17 17 17 17 16 16 16 16 16 16 16 16 15 16 16 16 16 16 17 17 17 17 17 17 17 17 17 17 17 17 17 17 17 17
20 20 19 19 19 19 18 18 18 17 17 17 17 17 16 16 16 16 16 16 16 15 16 16 16 16 16 16 17 17 17 17 17 17 17 17 17 17 17 17 17 17 17
20 20 19 19 19 19 18 18 18 17 17 17 17 17 17 16 16 16 16 16 15 15 16 16 16 16 16 16 16 16 16 16 16 16 16 16 16 16 16 17 17 17 17
20 20 19 19 19 18 18 18 17 17 17 17 17 17 17 16 16 16 16 15 15 15 15 16 16 16 16 16 16 16 16 16 16 16 16 16 16 16 16 16 17 17 17
20 20 19 19 19 18 18 18 17 17 17 16 16 16 16 16 16 16 16 16 15 15 15 15 16 16 16 16 16 16 16 16 16 16 16 16 16 16 16 16 16 16 17
20 20 19 19 18 18 18 17 17 17 17 16 16 16 16 16 16 16 16 15 15 15 15 15 15 16 16 16 16 16 16 16 16 16 16 16 16 16 16 16 16 16 16
20 20 19 19 19 18 18 18 17 17 16 16 16 16 16 15 15 15 15 15 15 15 15 15 15 15 16 16 16 16 16 16 16 16 16 16 16 16 16 16 16 16 16
20 20 19 19 18 18 18 18 17 17 16 16 16 16 15 15 15 15 15 15 15 15 15 15 15 15 16 16 16 16 16 16 16 16 16 16 16 16 16 16 16 16 16
20 20 20 19 19 18 18 18 17 17 17 16 16 16 16 15 15 15 15 15 15 15 15 15 15 15 15 15 16 16 16 16 16 16 16 16 16 16 16 16 16 16 16
20 20 20 19 19 18 18 18 17 17 17 16 16 16 16 15 15 15 15 15 15 15 15 15 15 15 15 15 15 16 15 15 16 16 16 16 16 16 15 15 16 16 15
20 20 20 19 19 18 18 18 17 17 17 17 16 16 16 16 15 15 15 15 15 15 15 15 15 15 15 15 15 15 15 16 16 15 15 15 15 15 15 15 15 15 15
20 20 20 19 19 18 18 18 18 17 17 17 17 16 16 16 16 15 15 15 15 15 15 15 15 15 15 15 15 15 15 15 16 15 15 15 15 15 15 15 15 15 15
20 20 20 19 19 18 18 18 18 17 17 17 17 16 16 16 16 16 15 15 15 15 15 15 15 15 15 15 15 15 15 15 15 15 15 15 15 15 15 15 15 15 15
Wind_Speed
9 12 12 13 13 12 12 12 12 12 12 12 12 12 12 12 12 12 11 11 11 11 10 10 10 9 9 9 9 9 8 8 6 6 5 6 7 7 8 9 9 8 9
11 14 14 13 13 13 13 13 13 13 13 13 13 12 12 11 11 11 11 11 11 10 10 9 9 9 8 8 8 8 8 7 6 5 3 4 6 7 8 9 9 8 9
13 15 14 14 14 14 14 14 13 13 13 13 13 12 12 11 11 11 10 10 10 9 9 9 8 8 8 7 7 7 7 7 7 7 5 1 6 8 9 9 9 9 9
15 15 14 15 15 15 15 14 14 13 13 12 12 12 11 11 10 10 9 9 9 9 8 8 8 7 7 7 6 6 6 7 9 9 4 4 6 8 9 8 8 8 9
15 16 15 15 15 15 15 15 14 13 13 12 11 10 10 10 9 9 8 8 8 8 8 7 7 7 6 6 5 5 6 8 10 7 4 8 9 8 8 8 8 8 9
15 16 15 16 16 15 15 14 13 13 12 11 10 9 9 8 8 8 8 7 7 7 7 7 6 6 5 5 5 5 6 8 10 4 5 8 9 8 8 8 8 8 9
15 16 16 16 15 15 14 14 13 12 11 10 9 8 8 7 7 7 7 7 7 7 7 6 5 5 5 4 4 5 7 10 9 2 5 8 9 8 8 8 8 8 8
14 15 15 15 15 14 13 12 11 10 9 9 7 6 5 5 5 6 7 7 7 7 7 6 5 5 4 4 4 4 6 9 8 3 6 9 9 8 8 7 7 7 7
12 13 14 14 14 13 12 11 9 8 7 6 5 3 2 2 3 5 6 6 6 6 6 5 4 4 3 3 4 5 7 9 10 4 6 10 9 8 7 7 7 7 7
9 9 9 12 13 13 12 10 8 6 4 3 2 1 2 2 3 4 6 6 5 5 4 4 4 4 4 4 5 6 7 9 7 2 9 10 10 8 7 7 7 7 6
8 7 7 7 9 10 11 10 9 7 4 3 3 3 4 2 4 4 7 4 2 2 2 3 4 6 6 7 7 8 8 8 2 7 10 10 10 8 7 7 7 6 6
8 7 7 6 6 7 7 7 5 5 4 2 2 2 3 5 4 5 5 3 2 3 4 6 8 8 8 6 8 8 6 4 3 9 10 11 10 8 8 7 7 6 6
7 6 6 6 6 6 4 5 4 4 4 6 5 5 5 6 3 4 2 2 3 2 3 4 6 5 4 2 1 2 1 4 6 10 10 11 10 8 8 8 7 6 6
7 6 5 4 6 7 6 3 3 4 5 5 7 8 6 3 3 4 4 4 4 4 4 5 4 5 5 4 2 2 5 6 8 10 10 10 9 8 8 7 7 7 6
7 7 6 5 6 6 4 2 6 5 5 6 6 7 7 3 2 2 3 4 5 6 4 3 3 4 4 5 5 6 5 6 8 9 9 9 9 8 7 7 7 7 7
7 8 6 5 6 5 4 3 4 5 5 7 6 7 8 6 4 4 3 4 4 5 5 4 4 3 3 3 4 5 5 6 6 7 8 8 8 8 7 7 7 8 8
8 9 6 7 7 8 7 5 5 6 8 6 7 9 9 9 8 5 4 3 5 7 6 5 6 4 4 4 4 4 4 5 5 6 6 7 8 8 8 7 7 8 8
9 9 7 7 8 8 6 5 5 7 6 6 10 12 12 12 10 6 3 4 7 8 5 3 5 4 5 4 3 4 4 4 5 6 6 7 6 7 7 7 7 7 7
8 10 8 7 8 7 6 4 5 6 5 8 10 10 11 12 12 7 4 5 8 5 4 6 5 4 4 4 2 4 4 4 4 5 4 6 6 7 7 7 7 7 7
7 9 9 7 7 6 3 5 4 5 4 7 7 7 8 10 11 9 5 7 7 4 5 5 5 4 4 3 4 4 3 4 4 5 5 5 6 7 7 6 6 6 6
7 9 9 7 6 4 2 4 4 3 4 4 5 6 8 9 9 7 4 4 4 5 6 6 5 5 5 4 4 3 3 4 4 4 4 4 5 6 6 6 6 6 6
7 8 8 7 7 6 3 4 4 4 4 4 3 5 9 10 10 8 5 4 4 5 6 6 5 5 4 4 3 2 3 4 4 4 4 5 6 5 5 7 7 7 8
6 6 8 8 7 6 5 4 4 3 2 3 3 3 6 8 8 8 8 5 4 5 5 6 6 5 4 4 4 3 3 1 2 3 5 5 5 5 4 5 9 9 10
7 6 8 8 7 7 5 3 4 3 3 3 3 2 3 6 6 7 7 6 5 5 6 7 7 5 5 4 4 4 3 2 1 2 4 4 5 6 6 5 7 9 11
7 6 6 8 8 7 6 4 2 3 2 3 3 3 4 4 5 6 6 5 5 4 5 5 6 6 5 5 4 4 4 4 4 3 2 3 4 4 4 4 5 7 9
8 7 6 7 7 6 5 5 4 3 3 4 3 2 2 3 3 4 5 5 5 4 5 4 4 6 5 6 5 5 4 4 4 3 2 2 2 2 3 3 4 4 7
Wind_Direction
95 94 89 87 86 85 84 83 84 84 85 85 83 81 78 76 73 69 67 64 62 59 57 55 51 48 45 44 44 43 41 38 33 34 43 52 55 50 44 36 32 43 39
101 96 89 88 87 86 84 83 84 84 84 84 83 80 79 76 74 71 66 62 61 60 56 54 50 46 44 43 40 36 30 22 10 358 7 48 65 59 50 41 39 35 33
100 99 91 87 87 87 86 85 84 84 83 82 81 79 77 75 73 71 64 58 56 55 55 51 47 42 41 42 37 29 17 3 348 336 318 6 80 64 52 41 37 34 32
93 88 88 88 87 87 86 85 84 84 83 82 81 79 76 74 71 68 61 55 51 49 48 47 43 37 35 36 34 22 4 350 337 331 349 61 70 65 52 42 36 34 31
93 91 90 90 89 87 86 85 85 84 82 81 80 78 76 72 68 64 57 51 46 44 43 41 38 32 30 28 24 11 352 338 326 326 30 71 72 61 53 45 37 32 32
98 96 94 92 91 88 86 84 83 82 79 76 75 74 72 68 64 57 52 44 39 38 35 34 30 27 23 18 11 358 340 328 320 338 70 78 78 63 54 46 38 34 34
105 104 102 98 95 91 87 84 81 78 76 72 69 67 65 63 59 53 48 43 39 35 31 30 26 19 16 10 359 345 330 320 298 285 96 88 83 69 55 43 37 36 37
112 113 113 110 105 99 93 86 82 78 74 69 65 64 65 68 67 61 54 46 39 30 26 23 19 13 7 358 339 323 315 311 317 360 97 91 86 72 57 45 38 38 40
120 126 128 130 121 112 105 99 93 87 81 77 77 77 82 109 107 90 72 53 39 31 28 22 10 359 346 330 310 299 298 301 305 303 87 92 85 71 58 48 41 40 40
115 121 127 133 133 133 128 123 122 115 107 113 128 187 219 210 178 131 86 67 45 30 17 4 343 320 304 291 280 279 286 292 284 51 88 91 82 69 58 49 42 41 40
122 126 125 124 128 135 138 138 155 150 152 171 203 256 259 194 174 134 92 102 61 5 328 306 295 288 283 269 258 264 274 269 225 92 86 90 80 68 60 49 42 43 40
131 127 127 128 124 115 101 128 147 136 132 106 76 30 8 53 56 81 124 171 238 271 278 271 275 278 270 250 239 248 270 274 81 95 92 89 79 68 59 48 44 46 42
109 105 111 115 111 108 93 90 81 91 92 61 28 46 36 34 37 77 121 176 257 290 321 297 277 274 264 227 199 217 306 42 72 91 96 90 81 71 60 49 45 46 44
101 94 85 95 96 80 72 81 81 58 65 54 18 44 39 30 21 37 51 16 11 22 6 340 331 345 0 21 29 27 54 57 76 93 96 93 85 76 66 56 47 47 49
115 105 86 72 83 91 82 40 83 57 39 67 29 42 47 41 35 16 60 29 25 17 10 342 354 9 12 9 24 41 44 51 74 93 103 101 96 87 76 65 52 47 50
123 110 102 91 87 96 96 76 68 94 76 52 27 53 51 50 45 18 40 36 24 19 12 1 10 8 10 23 30 32 43 51 64 92 112 110 106 97 84 73 60 53 52
109 98 90 89 79 71 63 58 73 65 64 51 26 33 48 48 51 35 21 26 17 20 22 18 13 10 24 33 37 40 48 44 57 69 101 110 108 100 87 78 72 63 56
110 107 97 89 86 80 69 53 64 58 57 58 42 26 30 37 53 39 19 22 30 24 16 28 18 21 23 30 38 36 46 45 47 63 73 81 91 97 92 84 80 74 65
113 119 111 96 94 93 99 86 73 74 54 62 55 32 23 25 41 42 24 28 35 30 19 30 27 22 22 20 50 68 49 49 41 53 63 75 77 94 95 90 84 77 71
108 108 103 97 101 104 100 98 81 63 59 61 64 43 28 31 36 30 37 34 25 30 31 35 22 21 18 12 44 67 64 57 48 46 48 58 64 77 82 92 95 86 80
126 121 127 135 121 112 96 96 95 86 78 71 70 45 41 37 34 40 37 36 29 33 34 37 20 20 21 26 43 44 44 52 58 62 47 45 49 56 72 78 79 80 84
143 145 136 123 113 103 79 101 104 92 95 92 72 60 52 41 27 31 32 34 46 42 30 34 36 16 10 34 42 53 49 25 17 43 53 55 42 34 45 57 65 70 78
155 147 127 119 117 112 96 76 85 86 85 90 86 64 57 54 40 27 20 25 41 49 39 37 34 36 20 18 42 57 74 47 355 8 44 53 42 36 32 43 53 58 68
155 143 129 126 122 114 116 93 105 101 94 98 104 112 97 72 57 38 27 26 40 44 39 34 31 28 35 20 14 25 51 93 79 25 16 32 39 42 30 39 49 51 59
141 127 118 118 113 111 110 103 80 90 102 97 90 86 93 80 68 48 34 35 49 49 53 49 38 30 35 31 28 18 15 22 34 71 42 11 21 31 35 41 51 49 50
129 123 117 114 116 121 132 139 124 102 96 95 91 91 94 101 79 60 42 37 51 49 47 44 49 48 39 34 33 34 38 38 20 38 47 33 29 12 34 44 46 47 51
Height
1524 1524 1524 1524 1525 1525 1526 1527 1528 1529 1529 1530 1530 1531 1531 1532 1532 1533 1533 1533 1534 1534 1534 1535 1535 1536 1536 1536 1537 1537 1537 1537 1538 1538 1538 1538 1539 1538 1538 1538 1538 1537 1537
1525 1525 1525 1525 1526 1526 1527 1528 1529 1530 1530 1531 1531 1532 1532 1532 1532 1533 1533 1534 1534 1534 1534 1535 1535 1536 1536 1537 1537 1537 1538 1538 1539 1539 1539 1539 1539 1539 1539 1539 1538 1537 1537
1526 1526 1526 1526 1527 1527 1528 1529 1529 1530 1531 1531 1532 1532 1532 1532 1533 1533 1533 1534 1534 1534 1535 1535 1535 1536 1536 1537 1537 1538 1538 1539 1539 1539 1540 1540 1540 1540 1539 1539 1538 1537 1536
1527 1527 1527 1527 1528 1528 1529 1530 1530 1531 1532 1532 1532 1533 1533 1533 1533 1533 1534 1534 1534 1534 1534 1535 1535 1536 1536 1536 1537 1538 1538 1539 1539 1540 1540 1541 1541 1540 1540 1539 1538 1537 1536
1528 1528 1528 1529 1529 1530 1530 1531 1531 1532 1532 1533 1533 1533 1533 1533 1534 1534 1534 1534 1534 1534 1534 1535 1535 1535 1536 1536 1537 1537 1538 1539 1540 1540 1541 1541 1541 1540 1540 1539 1538 1537 1536
1529 1530 1530 1530 1531 1531 1532 1532 1533 1533 1534 1534 1534 1534 1534 1534 1534 1534 1534 1534 1534 1534 1534 1534 1535 1535 1535 1536 1536 1537 1538 1539 1540 1540 1541 1541 1541 1540 1540 1539 1539 1538 1536
1532 1532 1532 1533 1533 1533 1533 1534 1534 1535 1535 1535 1535 1535 1535 1535 1535 1535 1535 1535 1534 1534 1534 1534 1534 1535 1535 1535 1536 1537 1538 1539 1540 1540 1541 1541 1541 1541 1540 1540 1539 1538 1537
1534 1534 1534 1535 1535 1535 1535 1536 1536 1536 1536 1536 1536 1536 1536 1536 1536 1536 1535 1535 1535 1535 1534 1534 1534 1534 1534 1535 1536 1536 1537 1538 1539 1541 1541 1541 1541 1541 1540 1540 1539 1538 1538
1536 1536 1536 1537 1537 1537 1538 1538 1538 1538 1538 1537 1537 1537 1537 1537 1537 1537 1536 1536 1535 1535 1534 1534 1534 1534 1534 1535 1535 1536 1537 1538 1539 1540 1541 1541 1541 1541 1540 1540 1539 1538 1538
1539 1539 1540 1540 1540 1539 1540 1540 1540 1540 1539 1539 1539 1539 1539 1538 1538 1538 1537 1537 1536 1535 1535 1535 1534 1534 1535 1535 1536 1537 1537 1538 1539 1540 1540 1541 1541 1541 1540 1540 1539 1538 1538
1540 1541 1542 1542 1542 1542 1542 1542 1542 1541 1541 1541 1541 1540 1540 1540 1540 1540 1539 1538 1537 1536 1536 1535 1535 1535 1535 1536 1536 1537 1538 1539 1539 1540 1540 1541 1541 1541 1540 1540 1539 1539 1538
1542 1543 1543 1544 1544 1545 1545 1544 1543 1543 1543 1543 1542 1542 1542 1542 1542 1541 1540 1539 1538 1537 1536 1536 1536 1536 1536 1536 1537 1538 1538 1539 1540 1540 1540 1541 1541 1541 1540 1540 1539 1539 1538
1543 1545 1545 1546 1546 1546 1546 1546 1546 1545 1545 1544 1544 1544 1543 1543 1542 1542 1540 1540 1539 1538 1537 1537 1537 1537 1537 1538 1538 1539 1539 1539 1539 1540 1540 1541 1541 1541 1541 1540 1539 1539 1539
1545 1546 1547 1547 1547 1547 1547 1547 1547 1547 1547 1546 1545 1545 1544 1544 1543 1542 1542 1541 1540 1539 1538 1538 1538 1538 1538 1539 1539 1539 1540 1540 1540 1540 1541 1541 1541 1541 1541 1541 1540 1540 1539
1546 1547 1547 1548 1548 1548 1548 1548 1548 1548 1548 1547 1546 1546 1545 1545 1544 1543 1543 1542 1541 1540 1539 1539 1539 1538 1539 1539 1540 1540 1540 1541 1541 1541 1542 1542 1542 1542 1541 1541 1540 1540 1539
1546 1548 1549 1549 1550 1549 1549 1550 1550 1550 1549 1549 1548 1548 1547 1546 1545 1545 1544 1543 1542 1541 1540 1540 1540 1540 1540 1540 1540 1541 1541 1542 1542 1542 1543 1543 1543 1542 1542 1542 1541 1541 1540
1547 1549 1550 1550 1551 1551 1551 1551 1551 1551 1551 1550 1549 1549 1549 1548 1547 1546 1545 1544 1543 1542 1542 1541 1540 1540 1541 1541 1542 1542 1542 1543 1543 1543 1544 1544 1544 1543 1543 1543 1542 1542 1541
1548 1549 1551 1552 1552 1552 1552 1553 1553 1553 1553 1552 1551 1550 1550 1549 1548 1547 1546 1546 1545 1544 1543 1542 1541 1541 1542 1542 1543 1543 1544 1544 1545 1545 1545 1545 1545 1545 1544 1544 1544 1543 1543
1549 1550 1552 1553 1553 1553 1553 1554 1554 1554 1554 1553 1552 1551 1551 1550 1550 1549 1548 1547 1546 1545 1544 1543 1543 1543 1543 1543 1544 1544 1545 1545 1546 1546 1546 1546 1546 1546 1545 1545 1545 1545 1544
1550 1551 1552 1554 1554 1555 1555 1555 1556 1556 1555 1555 1554 1553 1552 1552 1551 1551 1550 1549 1548 1547 1546 1545 1545 1545 1545 1545 1545 1546 1547 1547 1548 1548 1548 1548 1548 1548 1547 1547 1546 1546 1546
1551 1552 1553 1554 1555 1556 1556 1557 1557 1557 1557 1556 1556 1555 1554 1554 1553 1552 1552 1551 1550 1549 1548 1547 1547 1547 1546 1546 1547 1547 1549 1549 1549 1550 1550 1550 1550 1549 1549 1549 1548 1548 1547
1551 1553 1554 1555 1556 1557 1557 1558 1558 1558 1558 1558 1558 1557 1556 1555 1554 1554 1553 1553 1552 1551 1550 1550 1549 1549 1549 1548 1548 1549 1550 1552 1551 1552 1552 1551 1551 1551 1551 1550 1550 1549 1549
1551 1553 1554 1555 1556 1557 1558 1559 1559 1559 1560 1559 1559 1559 1558 1557 1556 1555 1555 1555 1554 1553 1552 1552 1551 1551 1551 1551 1551 1551 1552 1553 1553 1554 1553 1553 1553 1553 1552 1552 1552 1551 1550
1551 1553 1554 1555 1557 1558 1558 1559 1560 1561 1561 1561 1561 1560 1559 1559 1558 1557 1556 1556 1556 1555 1554 1554 1553 1553 1553 1553 1553 1553 1554 1554 1554 1555 1555 1555 1555 1554 1554 1554 1553 1553 1552
1549 1552 1554 1555 1557 1558 1559 1560 1560 1561 1562 1562 1562 1562 1561 1560 1560 1559 1558 1558 1557 1557 1556 1556 1556 1555 1555 1555 1555 1555 1555 1555 1555 1555 1556 1556 1556 1556 1556 1555 1555 1554 1554
1548 1551 1553 1555 1556 1557 1559 1560 1561 1562 1562 1563 1563 1563 1562 1562 1561 1560 1560 1560 1559 1559 1558 1558 1558 1557 1557 1557 1557 1557 1556 1556 1556 1556 1557 1557 1557 1557 1557 1557 1556 1555 1555